www.pogodaiklimat.ru

Погода и климат >> Архив погоды >> Аргентина >> Лабоулайе


ПОГОДА в Лабоулайе

  • Прогноз погоды в Лабоулайе
  • Монитор погоды в Лабоулайе

АРХИВ ПОГОДЫ в Лабоулайе

Время (UTC), дата Ветер
(напр.,м/с)
 
Видим.   Явления Облачность Т
(С)
Тd
(С)
f
(%)
Тe
(С)
Тes
(С)
Комфортность P
(гПа)
Po
(гПа)
Тmin
(С)
Tmax
(С)
R
(мм)
R24
(мм)
S
(см)
12 17.01 ЮВ 6 10 км в посл. час дождь {гроза} 10/4 360 м
[Frnb As op]
+15.5 +14.3 93 +14 +14 1019.1 1003.0 +15.1 +26.4 24
15 17.01 ЮВ 1 8000 м слаб. дождь 10/4 360 м
[Frnb As op]
+16.1 +14.2 88 +17 +19 1022.1 1005.8
18 17.01 ЮВ 1 8000 м слаб. дождь 10/0 1350 м
[As op]
+16.9 +14.5 86 +18 +22 1023.4 1007.0 2
21 17.01 штиль 0 8000 м слаб. дождь 10/0 1350 м
[As op]
+15.6 +13.3 86 +15 +16 1024.0 1007.6
00 18.01 штиль 0 10 км {дождь} 10/0 1350 м
[As op]
+13.5 +12.0 91 +13 +13 1023.3 1006.9 +13.3 +17.3 4
03 18.01 штиль 0 10 км 9/0 1500 м
[As op]
+14.1 +13.2 94 +14 +14 1024.9 1008.4
06 18.01 ЮЗ 1 10 км 3/0
[As op]
+13.1 +11.0 87 +13 +13 1023.6 1007.2
09 18.01 штиль 0 8000 м дымка 1/0
[As op]
+11.6 +10.1 91 +11 +11 1023.0 1006.5
12 18.01 Ю 1 10 км ясно +15.9 +12.3 79 +17 +24 1023.3 1006.9 +11.2 +15.9 6
15 18.01 ЮВ 1 15 км 4/4 600 м
[Cu Sc]
+22.4 +12.7 54 +25 +38 комфорт 1023.7 1007.4
18 18.01 ЮВ 1 15 км 5/5 600 м
[Cu Sc]
+23.7 +11.4 46 +25 +35 комфорт 1022.0 1005.7
21 18.01 ЮВ 2 15 км 1/1 900 м
[Sc diur, vesp]
+24.6 +11.3 43 +26 +30 жарко 1019.8 1003.6
00 19.01 штиль 0 15 км ясно +18.0 +14.2 78 +18 +18 1021.0 1004.6 +15.9 +25.0
03 19.01 штиль 0 10 км ясно +15.0 +12.5 85 +15 +15 1022.1 1005.8
06 19.01 штиль 0 10 км ясно +13.4 +11.5 88 +13 +13 1022.4 1006.2
09 19.01 штиль 0 10 км ясно +11.2 +9.6 90 +11 +11 1021.9 1005.6
12 19.01 СВ 2 10 км ясно +18.4 +12.8 70 +19 +26 1022.0 1005.7 +11.0 +18.4
15 19.01 С 7 10 км 1/1 900 м
[Cu hum]
+23.9 +13.8 53 +26 +31 жарко 1021.2 1005.0
18 19.01 С 6 10 км 3/3 900 м
[Cu hum]
+25.7 +14.7 51 +28 +33 жарко 1019.2 1003.0
21 19.01 С 10 10 км ясно +25.4 +12.6 45 +27 +27 жарко 1016.9 1000.8
00 20.01 С 2 10 км ясно +19.4 +14.5 73 +22 +22 комфорт 1017.4 1001.3 +18.4 +26.3
03 20.01 СВ 2 10 км ясно +16.7 +13.4 81 +17 +17 1018.0 1002.0
06 20.01 СВ 5 10 км ясно +15.7 +14.1 90 +14 +14 1016.6 1000.5
09 20.01 СВ 4 9000 м дымка ясно +14.8 +13.4 91 +14 +14 1015.6 999.6
12 20.01 СВ 4 10 км ясно +20.3 +15.8 75 +23 +27 комфорт 1015.5 999.4 +14.1 +20.3
15 20.01 С 13 10 км 5/4 1200 м
[Sc Ci]
+25.1 +14.3 51 +28 +28 жарко 1014.9 998.9
18 20.01 С 10 10 км 5/4 1200 м
[Sc Ci]
+26.9 +15.4 49 +30 +30 душно 1012.8 996.8
21 20.01 С 10 10 км 5/4 1200 м
[Sc Ci]
+26.1 +14.8 50 +29 +29 жарко 1010.6 994.8
00 21.01 С 4 10 км 5/4 1200 м
[Sc Ci]
+21.7 +16.7 73 +26 +26 душно 1009.7 993.8 +20.3 +27.5
03 21.01 С 1 10 км 6/0
[Ac As Ci]
+19.1 +16.1 83 +22 +22 комфорт 1010.7 994.9
06 21.01 штиль 0 10 км 6/0
[Ac As Ci]
+18.9 +16.8 88 +20 +20 1010.1 994.4
09 21.01 штиль 0 10 км 6/0
[Ac As Ci]
+18.5 +16.5 88 +19 +19 1010.6 994.8
12 21.01 С 6 10 км 6/0
[Ac As Ci]
+22.3 +18.5 79 +28 +30 душно 1012.0 996.1 +18.0 +22.3
15 21.01 С 6 10 км 3/1 900 м
[Cu hum Ci]
+29.4 +19.9 57 +36 +42 очень
душно
1011.9 996.1
18 21.01 С 1 10 км 4/4 900 м
[Sc]
+31.6 +19.8 50 +38 +50 очень
душно
1009.7 994.0
21 21.01 СВ 3 10 км 6/6 900 м
[Sc]
+31.5 +18.4 46 +36 +38 очень
душно
1007.5 991.8
00 22.01 СВ 3 10 км 1/1 900 м
[Sc]
+25.7 +20.9 75 +32 +32 очень
душно
1008.4 992.8 +22.3 +32.3
03 22.01 штиль 0 10 км ясно +22.5 +20.2 87 +29 +29 очень
душно
1009.7 994.0
06 22.01 штиль 0 10 км ясно +21.5 +20.1 92 +27 +27 душно 1009.0 993.4
09 22.01 штиль 0 8000 м дымка 1/0
[Ci]
+21.3 +20.5 95 +27 +27 душно 1008.6 993.0
12 22.01 С 7 10 км 5/0
[Ci]
+25.5 +22.1 81 +33 +34 очень
душно
1009.1 993.4 +21.2 +25.7
15 22.01 С 7 10 км 8/0
[Cs]
+32.2 +23.0 58 +42 +46 опасность
перегрева
1008.5 992.9
18 22.01 С 6 10 км 8/3 900 м
[Cu hum Cs]
+34.7 +22.2 48 +43 +47 опасность
перегрева
1007.0 991.6
21 22.01 С 5 10 км 8/1 900 м
[Cu med, cong Cs]
+33.8 +23.8 56 +45 +47 опасность
перегрева
1005.2 989.7
00 23.01 СВ 1 10 км 8/0
[Ac As Cs]
+29.6 +25.1 77 +43 +43 опасность
перегрева
1006.7 991.2 +25.5 +35.1
03 23.01 штиль 0 10 км 5/4 900 м
[Sc Ac As]
+27.2 +25.1 88 +39 +39 очень
душно
1008.6 993.2
06 23.01 штиль 0 10 км 4/0
[Ac As Ci]
+25.8 +24.5 93 +36 +36 очень
душно
1009.2 993.7
09 23.01 штиль 0 8000 м зарница туман 6/4 1200 м
[Cb cap Ac As]
+24.7 +23.5 93 +33 +33 очень
душно
1008.0 992.5
12 23.01 В 4 10 км в посл. час гроза 9/8 900 м
[Cu med, cong Ac As]
+24.2 +22.0 88 +31 +32 очень
душно
1011.1 995.4 +23.9 +29.6
15 23.01 В 8 10 км 4/4 600 м
[Sc]
+29.9 +22.5 65 +39 +41 очень
душно
1011.3 995.7
18 23.01 В 8 10 км 5/4 600 м
[Sc Ci ing]
+31.1 +22.6 61 +41 +42 опасность
перегрева
1011.2 995.6
21 23.01 В 7 10 км 6/4 600 м
[Cb cap Cs]
+30.8 +22.7 62 +40 +41 очень
душно
1010.3 994.8
00 24.01 СВ 1 10 км 8/8 600 м
[Cb cap]
+27.6 +23.4 78 +37 +37 очень
душно
1011.3 995.6 +24.2 +31.5
03 24.01 СВ 3 10 км 1/0
[Ac As]
+24.2 +22.4 90 +32 +32 очень
душно
1012.2 996.5
06 24.01 СВ 1 10 км 6/3 900 м
[Sc Cs]
+23.1 +21.9 93 +31 +31 очень
душно
1012.5 996.9
09 24.01 СВ 3 10 км 5/3 900 м
[Sc Ac As]
+22.2 +21.0 93 +29 +29 очень
душно
1011.7 996.0

 

Местоположение метеостанции Лабоулайе (Аргентина): широта -34.13 долгота -63.36 высота над уровнем моря 137 м.

В архиве по умолчанию представлена погода в Лабоулайе за последнюю неделю. Архивные данные за месяц целиком и за предыдущие месяцы, начиная с января 2011 года, Вы можете получить, выбрав интересующий диапазон дат из раскрывающегося списка и нажав кнопку "Ввод!".


*Определитесь, кто Вы:
робот инопланетянин человек

Внимание! Время в таблицах - всемирное. Для получения местного времени необходимо прибавить поправку, которая равна -3 ч.

Смотрите также архив погоды в соседних городах и на ближайших метеорологических станциях:

Погода в Рио-Куарто (Аргентина) (143 км)
Погода в Хенераль Пико (Аргентина) (178 км)
Погода в Вилья Рейнольдс (Аргентина) (192 км)
Погода в Маркос Хуарес (Аргентина) (195 км)
Погода в Хунине (Аргентина) (230 км)
Погода в Росарио (Аргентина) (275 км)
Погода в Пиларе (Аргентина) (279 км)
Погода в Санкт-Розе (Аргентина) (282 км)
Погода в Сан-Луисе (Аргентина) (293 км)
Погода в Вилла Долорес (Аргентина) (293 км)

Пояснения к столбцам:

Ветер - указаны скорость ветра в м/с - средняя за 10 мин, порывы в срок и между сроками (в фигурных скобках) и направление, откуда дует ветер: С - северный, СВ - северо-восточный, В - восточный, ЮВ - юго-восточный, Ю - южный, ЮЗ - юго-западный, З - западный, СЗ - северо-западный.
Видимость - горизонтальная дальность видимости в метрах или километрах. При видимости от 1 до 10 км при отсутствии осадков обычно наблюдается дымка, при ухудшении видимости до 1 км и менее - туман. В сухую погоду видимость может ухудшаться дымом, пылью или мглою.
Явления - указаны атмосферные явления, наблюдавшиеся в срок или в последний час перед сроком; фигурными скобками обозначены явления, наблюдавшиеся между сроками (за 1-3 часа до срока); квадратными скобками обозначены град или гололедные отложения с указанием их диаметра в мм.
Облачность - указаны через наклонную черту общая и нижняя облачность в баллах и высота нижней границы облаков в метрах; квадратными скобками обозначены формы облаков: Ci - перистые, Cs - перисто-слоистые, Cc - перисто-кучевые, Ac - высококучевые, As - высокослоистые, Sc - слоисто-кучевые, Ns - слоисто-дождевые, Cu - кучевые, Cb - кучево-дождевые. Подробнее классификацию облаков см. в Атласе облаков (PDF).
T - Температура воздуха - температура, измеренная на высоте 2 м над землей.
Td - Температура точки росы - температура, при понижении до которой содержащийся в воздухе водяной пар достигнет насыщения.
f - Относительная влажность воздуха - влажноcть воздуха, измеренная на высоте 2 м над землей.
Te - Эффективная температура - температура, которую ощущает одетый по сезону человек в тени. Характеристика душности погоды. При расчете учитывается влияние влажности воздуха и скорости ветра на теплоощущения человека.
Tes - Эффективная температура на солнце - температура, которую ощущает человек, с поправкой на солнечный нагрев. Характеристика знойности погоды. Зависит от высоты солнца над горизонтом, облачности и скорости ветра. Ночью, в пасмурную погоду, а также при ветре 12 м/с и более поправка равна нулю.
P - Атмосферное давление - приведенное к уровню моря атмосферное давление.
Po - Атмосферное давление - измеренное на уровне метеостанции атмосферное давление.
Tmin - Минимальная температура - минимум температуры воздуха на высоте 2 м над землей.
Tmax - Максимальная температура - максимум температуры воздуха на высоте 2 м над землей.
R - Количество осадков - Количество выпавших осадков за период времени, мм. При наведении курсора мыши на число - период времени, за который выпало указанное количество осадков.
R24 - Количество осадков - Количество выпавших осадков за 24 часа, мм.
S - Снежный покров - Высота снежного покрова, см. При наведении курсора мыши на число - состояние снежного покрова и степень покрытия местности в баллах.